This demonstration page uses our WeatherBlox Daily Observations layout. Learn more.

Left ArrowRight Arrow

39.29038, -76.61219

Hourly Observations for January 19, 2022

Temp ( °F °C ) Dew Point ( °F °C ) Humidity (%) Winds ( mph kmh ) Pressure ( in mb ) Visibility ( mi km ) Precip ( " mm )
12:54 am 00:54 Partly Cloudy 31 -0.6 19 -7.2 61 61 S 5 7 30.18 1022 10 16 0.00 0.00
1:54 am 01:54 Partly Cloudy 27 -2.8 19 -7.2 72 72 Calm 30.18 1022 10 16 0.00 0.00
2:54 am 02:54 Mostly Clear 30 -1.1 19 -7.2 64 64 Calm 30.16 1022 10 16 0.00 0.00
3:54 am 03:54 Mostly Cloudy 29 -1.7 19 -7.2 66 66 Calm 30.14 1021 10 16 0.00 0.00
4:54 am 04:54 Mostly Cloudy 33 0.6 21 -6.1 61 61 SSW 7 11 30.13 1020 10 16 0.00 0.00
5:54 am 05:54 Mostly Cloudy 33 0.6 21 -6.1 61 61 S 5 7 30.13 1020 10 16 0.00 0.00
6:54 am 06:54 Mostly Cloudy 33 0.6 21 -6.1 61 61 SSW 5 7 30.14 1021 10 16 0.00 0.00
7:54 am 07:54 Mostly Cloudy 34 1.1 21 -6.1 59 59 SSW 3 6 30.14 1021 10 16 0.00 0.00
8:54 am 08:54 Mostly Cloudy 38 3.3 22 -5.6 52 52 SSW 7 11 30.13 1020 10 16 0.00 0.00
9:54 am 09:54 Mostly Cloudy 40 4.4 22 -5.6 49 49 SW 10 17 30.11 1020 10 16 0.00 0.00
10:54 am 10:54 Mostly Cloudy 44 6.7 22 -5.6 41 41 SW 12 19 30.08 1019 10 16 0.00 0.00
11:54 am 11:54 Mostly Cloudy 47 8.3 23 -5 39 39 WSW 14 22 30.05 1018 10 16 0.00 0.00
12:54 pm 12:54 Mostly Cloudy 50 10 24 -4.4 36 36 WSW 12 19 30.02 1017 10 16 0.00 0.00
1:54 pm 13:54 Mostly Cloudy 52 11.1 25 -3.9 35 35 SSW 7 11 29.99 1016 10 16 0.00 0.00
2:54 pm 14:54 Mostly Cloudy 54 12.2 25 -3.9 33 33 SW 9 15 29.98 1015 10 16 0.00 0.00
3:54 pm 15:54 Mostly Cloudy 54 12.2 25 -3.9 33 33 SSW 10 17 29.97 1015 10 16 0.00 0.00
4:54 pm 16:54 Mostly Cloudy 53 11.7 26 -3.3 35 35 SSW 10 17 29.98 1015 10 16 0.00 0.00
5:54 pm 17:54 Mostly Cloudy 52 11.1 26 -3.3 37 37 SW 12 19 29.99 1016 10 16 0.00 0.00
6:54 pm 18:54 Cloudy 51 10.6 27 -2.8 39 39 SW 7 11 30.00 1016 10 16 0.00 0.00
7:54 pm 19:54 Cloudy with Light Rain 50 10 27 -2.8 41 41 SW 9 15 30.00 1016 8 13 0.00 0.00
8:54 pm 20:54 Cloudy 50 10 28 -2.2 43 43 SW 13 20 29.99 1016 10 16 0.00 0.00
9:54 pm 21:54 Cloudy 50 10 29 -1.7 44 44 SW 7 11 30.01 1016 10 16 0.00 0.00
10:54 pm 22:54 Cloudy 49 9.4 29 -1.7 46 46 WSW 5 7 30.01 1016 10 16 0.00 0.00
11:54 pm 23:54 Cloudy with Light Rain 46 7.8 35 1.7 66 66 WSW 7 11 30.00 1016 9 14 0.00 0.00

Powered by AerisWeather